Lapse_Rate
3.3 3.4 3.5 3.6 4.2 5.5 6.3 6.8 6.3 5.3 4.7 4.4 4.3 4.4 4.9 6.2 6.2 6.3 4.6 4.7 5.0 6.2 7.5 6.0 5.9 7.1 7.2 7.1 6.5 6.9 6.8 6.9 6.3 6.5 6.5 6.5 6.5 6.5 6.5 6.5 6.5 6.5 6.5 6.5 6.5 6.5 6.5 7.2 6.9 6.5 6.8 7.4 7.4 7.6
3.5 3.7 3.6 4.1 5.2 6.0 6.4 6.5 5.8 5.6 5.3 4.8 4.6 4.6 5.1 6.3 6.6 6.5 5.5 5.6 4.6 3.4 7.5 7.2 6.1 6.0 6.2 7.9 7.1 7.3 7.0 7.1 7.1 6.5 6.5 6.5 6.5 6.5 6.5 6.5 6.5 6.5 6.5 6.5 6.5 6.5 7.0 7.5 7.2 7.7 7.9 7.5 7.6 7.8
5.1 3.9 4.2 5.0 5.8 6.1 6.1 5.9 6.1 5.9 5.5 4.9 4.9 4.8 5.3 6.2 6.4 6.1 6.0 6.3 5.8 7.1 7.7 6.1 6.3 6.3 7.1 6.9 8.4 4.6 7.5 8.0 7.6 7.6 6.7 6.5 6.5 6.5 6.4 6.5 6.5 6.5 7.1 6.5 6.5 6.6 6.9 7.3 7.8 8.0 8.1 8.0 8.2 8.3
4.4 3.8 5.1 5.6 5.9 6.0 5.8 6.1 6.2 5.7 5.3 4.9 4.9 4.9 5.6 6.5 6.8 7.6 7.2 7.0 6.4 7.1 6.6 7.4 9.2 6.8 8.2 8.4 9.0 8.9 7.6 8.3 8.0 7.9 7.0 6.5 6.5 7.0 6.5 6.6 6.5 6.7 6.8 6.5 6.5 6.9 7.2 7.5 7.8 8.1 8.2 8.3 8.4 8.5
4.1 4.7 5.5 5.9 6.1 6.1 6.0 6.2 6.0 5.5 5.3 5.1 5.2 5.5 6.6 6.9 7.2 6.6 6.0 6.2 7.1 5.9 6.7 7.2 8.5 9.2 9.4 9.3 8.9 8.8 8.4 8.0 7.5 7.0 6.6 6.5 7.0 6.8 6.9 6.7 6.5 7.1 6.5 6.5 6.5 7.2 7.1 7.3 8.1 8.4 8.1 8.1 8.4 8.4
5.1 5.5 6.1 6.4 6.1 5.9 6.0 5.9 5.8 5.5 5.2 5.3 5.6 6.2 7.0 7.6 8.3 6.5 2.8 6.8 7.3 7.1 5.9 6.5 8.6 8.4 9.0 8.9 8.7 8.5 8.4 8.0 7.8 7.3 7.0 7.3 7.9 7.1 6.5 6.5 7.0 7.5 7.8 7.9 7.2 8.0 7.9 8.1 8.4 8.5 8.3 8.4 8.6 8.6
5.8 6.1 6.3 5.8 5.9 5.8 5.9 6.0 5.9 5.6 5.5 5.8 6.1 6.7 7.5 7.6 5.4 4.1 4.7 4.9 4.6 6.7 6.1 6.9 7.0 8.2 8.8 8.7 8.5 8.0 8.5 7.8 7.9 7.4 7.0 7.2 7.3 7.2 6.5 6.5 7.2 7.7 8.0 8.1 8.2 8.1 7.6 8.1 7.8 8.6 8.5 8.7 8.7 8.8
6.3 6.6 5.9 5.9 6.0 6.0 5.9 5.9 5.9 5.9 6.2 6.5 6.4 6.2 6.5 6.3 5.6 5.0 5.2 5.3 4.1 8.6 8.2 6.5 6.7 7.3 8.5 7.5 7.2 8.4 7.4 7.8 7.5 7.3 7.5 7.0 7.3 7.1 6.5 7.1 7.6 7.9 8.0 8.1 8.2 8.4 8.2 8.5 8.5 8.5 8.8 8.7 8.4 8.4
6.7 6.1 5.9 6.0 6.1 6.1 5.7 5.7 6.0 6.4 6.3 6.5 7.0 6.7 7.6 7.7 7.1 7.2 5.8 5.8 7.3 7.0 6.7 6.9 6.5 6.5 8.3 7.6 7.8 7.8 7.7 6.5 7.8 6.7 6.9 7.2 6.5 6.5 6.7 7.2 7.5 7.8 7.8 7.9 8.3 8.3 8.4 8.2 8.2 8.4 8.4 8.4 8.3 8.3
6.0 5.9 6.0 5.9 6.0 6.0 6.2 6.0 6.7 7.0 6.8 6.9 8.8 6.4 5.8 6.4 5.6 5.2 7.6 4.3 3.0 6.4 7.3 6.7 7.7 6.5 7.7 7.4 7.0 7.1 7.2 6.5 6.5 6.6 7.6 6.5 6.6 7.5 7.8 8.1 8.1 8.2 8.4 8.4 7.7 7.5 7.9 7.9 8.1 8.2 8.3 8.6 8.6 8.6
6.1 6.0 6.1 6.0 6.1 6.1 6.3 6.8 7.0 7.0 6.9 8.8 7.2 7.8 7.3 5.2 7.9 8.2 6.5 6.6 7.1 6.7 7.5 7.5 7.5 6.9 8.2 6.6 6.6 7.4 6.6 6.7 6.5 6.6 6.5 6.5 6.5 7.1 8.0 8.1 8.5 8.6 8.6 8.6 8.6 8.6 8.6 8.5 8.2 8.3 8.4 8.6 8.8 8.8
6.3 6.2 6.2 6.3 6.4 6.6 6.8 6.8 7.1 8.8 8.8 7.1 6.7 8.3 7.6 8.3 7.6 6.7 6.6 6.9 6.6 6.5 7.2 7.0 7.2 7.6 7.7 8.2 7.0 7.1 6.5 6.6 6.5 7.2 6.5 6.5 6.5 7.8 8.0 8.1 8.4 8.6 8.6 8.6 8.8 8.6 8.7 8.7 8.7 8.6 8.7 8.7 8.8 8.8
6.5 6.5 6.4 6.5 6.6 6.7 6.9 7.1 7.0 6.2 6.9 7.6 8.2 7.9 7.5 7.3 6.5 6.5 6.5 6.5 6.5 7.1 7.4 7.5 6.9 7.6 7.8 7.9 7.0 6.7 6.5 6.5 7.2 6.5 6.5 6.5 7.4 7.9 8.1 8.3 8.3 8.7 8.6 8.6 8.7 8.9 8.8 8.8 9.0 8.8 8.9 8.9 8.8 8.6
6.6 6.6 6.7 6.8 6.6 6.8 6.9 6.8 6.2 7.4 8.8 7.9 7.2 6.5 6.5 6.5 6.5 6.5 6.5 6.6 7.4 7.6 7.7 7.6 7.1 7.0 7.4 6.8 6.9 6.5 6.5 6.6 6.5 6.5 6.5 6.7 7.5 7.9 8.2 8.5 8.4 8.3 8.5 8.5 8.5 8.7 8.7 8.8 8.8 8.7 7.5 7.5 7.3 7.8
6.8 7.1 7.3 7.4 7.4 6.7 6.6 7.3 7.5 8.7 8.6 7.4 7.3 6.5 6.5 7.2 7.4 7.5 7.7 7.7 8.0 8.2 7.9 7.4 7.3 7.3 6.8 6.5 6.6 6.5 6.5 6.5 6.5 6.5 6.5 7.5 7.9 8.1 8.1 8.3 8.4 7.6 6.6 7.6 8.5 7.5 6.3 6.3 7.1 6.9 6.7 7.3 7.7 6.4
6.9 7.3 7.4 7.3 7.5 7.1 7.9 8.1 7.6 7.2 8.4 7.8 7.5 6.7 7.2 7.0 6.7 7.1 7.5 7.5 8.2 8.2 8.0 7.6 6.7 6.5 6.5 6.5 6.5 6.5 6.6 6.5 6.5 6.9 7.5 8.0 8.0 8.0 8.3 8.4 8.4 8.6 8.4 8.4 8.6 8.3 7.8 6.4 6.7 7.1 7.1 6.6 6.3 6.3
7.2 6.6 7.2 7.4 7.1 7.6 8.3 8.0 7.6 6.8 7.7 7.4 6.9 7.7 7.6 7.5 7.2 7.5 7.8 7.8 8.5 7.7 6.6 6.9 6.5 6.5 6.8 6.5 6.5 6.5 6.5 6.6 7.2 7.5 8.0 8.2 8.1 8.2 8.5 8.5 8.3 8.7 8.5 8.6 8.6 7.9 7.4 7.2 7.0 7.0 7.2 7.7 7.0 7.6
5.9 7.3 7.8 8.6 8.7 7.5 7.3 9.1 8.4 7.9 7.1 7.4 7.0 7.4 7.7 8.1 7.8 7.9 8.1 8.3 8.0 7.6 7.4 6.6 7.3 6.5 6.5 6.5 6.5 6.8 7.3 7.8 8.0 8.0 8.2 8.4 8.6 8.6 8.8 8.6 8.8 8.9 8.7 8.0 7.6 7.3 7.3 7.8 8.3 8.2 7.8 8.7 8.0 7.9
7.2 8.6 8.3 7.6 7.7 6.5 7.8 8.0 8.6 7.1 7.4 7.8 8.1 8.2 8.1 8.1 8.3 8.5 8.4 8.5 8.5 8.5 7.8 7.4 6.6 6.5 6.5 7.1 7.2 7.5 7.7 7.8 7.7 8.1 8.3 8.6 8.7 8.5 8.2 8.4 8.4 8.7 8.5 8.3 8.7 8.6 8.6 8.7 8.6 8.4 7.9 8.5 8.4 8.2
7.8 8.1 7.4 6.5 6.1 5.9 7.8 8.0 8.9 7.8 7.1 7.7 8.1 7.8 8.0 7.9 8.3 8.2 8.2 8.2 8.2 7.8 7.1 6.7 6.7 7.2 7.4 7.7 8.1 8.0 8.2 8.4 8.2 7.8 7.9 8.4 8.6 8.5 8.7 8.7 8.6 8.8 8.7 8.9 8.8 8.2 8.6 8.6 8.7 8.9 8.7 8.4 7.9 7.8
9.0 7.9 6.7 6.5 6.3 8.3 8.3 8.1 7.8 8.0 8.0 7.6 8.1 7.9 7.6 8.1 7.8 7.7 7.7 8.4 7.6 7.3 6.9 7.6 7.7 8.1 8.4 8.5 8.7 8.7 8.6 8.7 8.3 8.3 8.1 7.9 8.3 8.7 8.7 8.9 9.0 9.0 8.9 8.6 8.4 8.4 8.3 8.4 8.4 8.6 8.2 8.0 7.7 7.5
8.3 7.6 7.0 6.6 7.2 7.8 8.1 8.8 8.1 8.4 7.8 7.7 7.7 7.8 7.3 7.1 7.2 7.5 8.2 7.6 7.4 7.6 7.9 8.0 8.2 8.3 8.3 8.3 8.4 8.6 8.8 8.9 8.8 8.6 7.3 8.0 8.3 8.6 8.6 8.7 8.8 8.5 8.6 8.5 8.6 8.4 8.5 8.7 8.8 8.5 8.2 8.1 7.5 7.7
8.0 7.6 7.4 8.2 7.5 7.7 7.4 8.8 7.5 7.7 6.8 7.1 7.6 7.0 6.9 7.1 7.6 8.4 7.2 7.6 7.8 8.4 8.5 8.5 8.3 8.0 8.5 8.1 8.8 8.9 8.7 8.8 8.7 8.7 8.7 8.7 8.9 8.9 8.9 8.9 9.0 8.5 8.3 8.5 9.1 8.9 8.7 8.5 8.2 8.1 8.3 8.4 7.7 7.8
6.7 6.0 7.2 7.5 7.6 6.9 8.0 7.3 7.9 7.4 7.4 6.9 6.6 6.5 6.7 7.2 7.9 7.2 6.5 7.2 7.9 8.6 8.4 8.1 8.6 8.4 8.6 8.4 8.4 8.6 8.7 9.0 8.8 8.8 8.9 8.8 8.6 8.7 9.0 9.0 9.0 9.0 9.0 8.9 8.8 8.6 8.2 8.0 8.0 8.0 8.0 8.1 7.8 7.9
6.7 6.5 7.4 6.8 7.7 7.0 6.6 6.7 6.8 6.9 6.5 6.7 6.5 6.5 6.8 7.6 6.5 6.5 6.5 7.2 7.8 8.0 8.0 8.5 8.5 8.4 8.1 8.3 8.5 8.6 7.4 8.6 8.4 8.3 8.6 8.9 8.7 8.4 8.5 8.7 8.4 8.9 9.1 8.6 8.0 7.7 7.7 7.9 7.9 7.9 8.1 7.4 7.5 7.8
6.5 7.3 6.9 6.9 6.9 6.6 6.6 6.5 6.5 6.5 6.5 6.5 6.6 7.3 7.5 6.8 6.5 6.5 6.8 7.6 7.7 7.7 5.7 6.0 7.5 8.2 8.3 8.6 8.4 8.6 8.6 8.9 8.7 8.5 8.6 8.7 8.6 8.4 8.1 8.0 8.0 8.0 9.1 8.3 7.8 7.6 7.9 7.8 7.9 7.7 7.3 7.2 7.4 7.3
6.5 6.6 7.6 8.3 7.9 7.6 7.1 7.3 7.5 6.9 6.4 6.5 6.6 6.7 6.5 6.5 6.5 6.8 8.0 8.5 8.3 8.7 8.7 7.6 7.9 8.6 8.5 8.6 8.8 8.9 9.0 8.9 8.4 8.5 8.7 8.8 8.9 8.8 8.6 8.1 7.7 7.3 6.5 7.0 7.0 7.7 7.6 7.6 7.5 7.6 7.5 8.1 7.5 7.3
7.4 7.5 6.5 7.3 7.3 7.7 6.7 6.8 6.6 6.5 6.7 7.4 7.2 6.5 6.5 6.5 6.5 7.7 8.3 8.6 8.5 9.0 9.1 9.2 9.2 9.1 9.0 9.0 8.6 8.3 8.4 8.4 8.0 8.1 9.0 9.1 9.3 9.0 7.7 6.7 6.0 5.6 5.5 5.8 6.6 7.5 7.6 7.9 7.5 7.5 7.5 7.3 6.9 6.6
7.2 7.9 7.5 6.5 7.1 7.2 7.0 6.9 6.9 7.5 7.9 7.6 6.8 6.6 7.0 7.9 8.2 8.3 8.7 8.9 9.1 9.0 8.7 8.3 8.3 8.0 8.5 8.7 8.1 8.4 8.3 8.0 7.7 7.9 7.8 8.0 8.1 8.1 5.8 5.2 5.2 5.5 5.7 5.8 5.7 6.8 6.8 6.2 6.0 6.1 6.3 6.0 6.1 6.5
7.3 8.0 7.2 7.0 6.6 6.5 7.3 7.8 7.6 7.4 8.3 7.6 8.1 8.2 8.2 8.2 8.0 8.6 8.8 8.9 8.5 7.6 7.1 6.8 6.8 7.0 7.2 7.1 7.2 7.6 7.7 7.3 7.5 6.5 6.6 6.1 5.6 4.9 4.7 4.8 5.0 5.7 6.3 7.2 7.9 7.6 5.2 6.8 6.7 6.7 7.0 6.8 6.5 4.3
8.0 7.8 7.3 7.3 7.0 7.5 7.8 6.2 6.1 6.2 6.4 6.9 6.9 7.5 7.8 8.1 8.3 8.6 8.5 8.5 7.8 6.3 6.7 6.9 6.9 6.4 6.9 7.1 8.2 8.2 8.1 7.4 5.5 4.9 4.9 4.6 4.5 4.4 4.6 4.5 4.7 5.5 6.7 7.9 8.1 7.8 7.0 7.2 7.7 7.4 7.3 6.4 5.0 4.2
7.7 7.3 7.0 6.6 7.1 7.6 7.4 7.9 7.8 7.7 7.8 7.7 7.6 7.9 7.9 7.7 7.5 8.2 6.1 6.3 6.5 6.8 6.5 6.3 6.6 7.2 6.1 5.5 5.2 5.0 4.1 4.2 4.7 5.0 4.2 3.7 3.5 3.3 3.0 2.8 4.0 4.9 5.9 7.0 7.4 7.9 7.1 6.4 6.4 5.8 4.9 4.9 3.9 3.6
7.5 7.6 7.6 7.3 7.2 7.2 7.5 7.6 7.4 7.3 7.5 7.4 7.5 7.7 7.9 7.7 7.2 7.4 5.3 5.0 5.8 6.3 6.1 5.8 5.6 5.0 4.5 3.7 4.3 4.8 3.5 4.9 4.7 3.6 2.3 1.4 1.0 1.6 1.6 2.9 2.8 3.3 5.0 6.5 7.5 7.0 6.0 5.4 5.2 4.5 4.4 3.1 2.7 2.0
Wind_Speed
43 42 41 44 44 43 41 40 37 35 33 30 28 26 24 21 9 1 3 6 2 3 8 14 9 8 12 8 6 9 4 1 2 2 2 1 2 4 4 9 8 9 8 4 6 4 6 6 3 2 7 9 11 13
40 41 41 44 44 43 41 39 37 34 33 30 28 26 24 19 14 5 4 8 12 5 4 7 13 14 13 3 5 10 1 9 5 3 2 1 1 2 5 3 13 6 7 4 7 4 4 2 4 8 10 9 11 13
40 39 42 44 43 42 40 38 36 34 32 30 28 26 23 19 11 3 4 5 4 3 5 6 7 10 10 11 6 4 2 3 5 1 3 2 2 3 3 6 5 9 11 4 2 6 7 3 7 11 12 11 13 16
41 39 41 42 42 41 39 37 35 33 31 29 27 25 23 17 11 13 4 1 3 4 4 4 2 4 5 4 2 2 6 4 6 5 2 1 1 2 1 3 2 2 4 6 6 11 9 2 12 11 11 14 13 14
39 41 42 41 41 40 39 37 35 33 30 29 27 26 23 20 25 19 10 5 3 3 3 5 8 7 3 6 8 9 8 8 4 2 1 2 2 1 1 2 5 7 6 6 3 8 5 8 11 11 11 11 12 14
40 42 42 42 41 40 38 37 35 34 32 30 27 26 26 30 25 5 3 4 6 3 4 4 3 4 8 8 9 9 6 5 3 2 1 3 3 2 2 3 4 8 10 10 4 7 6 7 7 11 8 9 9 12
41 42 42 42 41 40 40 38 36 35 32 29 26 23 19 14 10 3 3 3 2 4 3 5 5 1 7 8 6 5 6 2 3 1 0 2 3 2 1 2 10 9 6 6 10 6 4 8 7 8 8 10 11 11
43 43 42 42 41 41 41 39 37 36 34 33 33 33 35 33 19 4 5 3 5 2 3 3 4 5 4 4 3 3 2 2 2 1 1 3 3 1 3 3 9 7 4 2 6 5 2 4 6 8 10 12 14 13
43 43 43 43 42 41 40 40 38 36 35 36 33 27 7 3 2 4 2 6 9 3 3 3 7 4 4 3 3 2 1 2 1 1 2 1 3 3 5 3 5 6 6 6 3 2 5 5 8 10 12 13 14 14
43 43 43 43 42 42 41 40 40 38 34 32 14 4 3 3 12 7 1 2 4 2 2 3 5 5 6 6 3 3 1 4 3 4 3 2 3 2 6 8 5 6 4 2 4 5 7 9 11 12 13 12 13 13
43 43 43 43 42 41 41 40 39 33 20 5 3 3 6 7 2 2 2 2 3 3 2 3 8 8 6 5 4 2 3 3 3 4 4 5 2 5 6 6 7 4 2 4 6 7 8 9 10 11 11 13 13 14
43 43 43 42 41 41 39 36 31 9 4 7 9 7 4 3 2 3 3 2 3 4 4 7 8 7 3 3 3 2 2 1 2 5 2 2 4 8 8 6 3 1 4 6 8 10 12 13 12 12 12 12 13 13
43 43 42 40 39 38 35 30 14 29 28 6 4 4 4 2 3 5 6 4 5 5 6 9 7 3 3 4 3 2 3 3 7 2 3 3 8 7 6 4 3 7 10 11 12 13 14 15 15 14 13 13 13 13
42 41 40 39 37 33 24 21 24 6 0 3 4 5 1 3 1 1 5 7 6 9 10 8 5 3 3 3 3 4 3 4 4 5 2 6 8 7 6 7 7 8 9 11 13 14 15 14 14 13 10 8 9 11
41 39 38 35 33 26 25 14 4 4 3 4 4 4 3 5 8 8 8 9 10 10 9 6 4 4 3 1 3 3 4 4 4 3 5 6 7 5 5 6 7 6 5 8 11 10 7 8 9 9 7 8 10 10
42 38 23 34 30 25 17 11 7 3 3 3 5 8 7 8 7 8 9 8 8 8 5 3 3 3 3 5 3 4 5 2 3 5 5 4 4 2 5 7 8 9 9 10 11 12 11 7 9 12 12 8 8 10
22 6 33 28 23 17 10 3 3 5 4 4 3 6 7 9 7 8 7 6 6 5 2 3 3 2 4 3 5 4 3 7 6 4 3 5 5 6 7 8 8 10 9 10 12 10 11 12 12 12 11 12 8 8
15 27 31 24 17 9 3 4 4 5 7 4 5 7 8 7 8 7 7 4 4 3 3 2 2 2 3 4 4 6 6 4 4 4 4 4 5 6 7 9 11 10 10 10 9 12 11 11 12 10 10 11 8 7
21 22 19 14 7 3 4 4 4 4 4 5 6 7 8 6 7 7 5 5 6 5 3 2 2 2 4 6 8 7 5 3 3 2 2 4 5 5 6 9 9 11 12 12 12 10 11 12 10 9 8 9 8 7
33 28 28 23 10 4 4 3 3 4 3 4 7 7 7 6 6 4 5 5 4 3 3 1 3 6 6 6 5 5 5 3 1 2 3 3 4 6 9 10 9 11 10 12 11 11 10 10 9 9 9 9 7 6
19 11 19 9 4 6 4 3 4 5 4 3 6 7 5 6 5 5 5 4 3 2 2 5 5 5 7 5 3 3 3 1 2 4 5 6 6 7 8 9 9 9 9 9 10 11 12 10 11 11 10 9 5 4
5 17 4 5 4 4 3 3 5 5 3 6 6 4 5 4 3 2 3 2 2 2 3 5 5 5 5 5 3 1 2 4 5 5 6 6 7 7 8 9 9 9 9 10 10 11 10 10 10 11 10 8 5 4
12 5 4 4 4 4 2 2 3 3 4 6 6 4 3 3 3 4 2 2 2 2 3 4 5 2 3 3 2 4 3 5 5 5 6 7 8 8 9 9 8 9 10 10 10 10 10 13 11 11 10 8 5 5
10 4 3 3 4 4 2 2 3 3 5 6 4 3 4 3 3 2 2 3 3 5 4 5 3 3 3 3 3 4 5 4 5 6 7 8 8 8 8 9 8 9 9 9 9 10 10 10 14 11 10 6 5 4
4 4 2 5 3 4 4 3 3 3 3 7 3 3 2 2 3 3 2 3 4 4 4 4 4 4 4 3 3 5 5 5 6 8 8 8 7 8 8 8 9 9 8 8 9 11 12 12 11 12 11 7 3 5
5 3 2 3 3 4 4 4 4 6 7 3 3 4 2 3 3 2 2 2 1 3 3 2 3 4 5 5 5 6 6 6 7 7 7 6 7 7 8 9 10 10 7 6 7 11 14 13 12 15 10 4 2 4
4 3 3 2 4 6 5 5 8 5 3 3 4 4 3 3 3 2 3 4 3 3 3 4 4 5 5 5 6 7 5 5 5 6 6 7 7 7 7 9 10 8 9 10 10 12 13 13 13 11 7 5 3 5
3 4 5 4 4 4 5 4 3 2 2 4 5 3 5 3 1 2 2 3 2 1 1 2 3 4 6 6 5 5 5 4 3 5 5 5 5 4 6 6 10 17 13 12 11 12 11 10 10 10 6 4 4 5
3 6 6 5 4 5 3 3 3 2 3 4 3 2 3 1 2 1 2 2 1 3 4 5 4 3 4 5 4 4 4 2 5 10 12 8 6 4 7 6 8 9 11 10 16 14 8 3 4 5 5 4 4 4
3 1 4 3 3 4 4 4 5 4 3 3 2 2 2 1 1 2 3 4 4 4 3 2 1 2 4 5 5 4 1 2 0 3 6 7 7 7 7 8 8 9 10 10 10 11 3 3 3 3 1 4 5 6
3 3 3 5 5 7 5 3 2 2 1 2 3 3 5 4 2 4 4 2 1 1 1 2 3 2 2 4 4 5 4 3 5 2 3 5 6 7 7 7 12 13 10 9 9 8 8 8 6 6 6 6 6 6
2 3 4 4 4 3 1 2 2 1 1 2 4 4 5 5 8 5 2 2 3 2 2 1 1 1 2 1 1 1 0 3 3 3 5 5 6 10 12 13 13 13 9 9 9 7 6 7 6 6 6 8 7 7
6 6 5 4 3 3 2 1 1 1 2 2 3 3 4 4 4 1 2 2 0 1 2 1 1 1 1 1 1 2 1 3 3 4 4 2 5 7 10 11 12 12 10 9 7 7 8 9 7 7 7 6 7 7
Wind_Direction
152 150 146 147 147 149 150 152 152 153 151 150 149 148 154 167 166 74 74 339 77 84 32 24 7 135 149 117 146 162 100 84 105 142 191 180 238 176 196 187 174 177 179 190 213 235 252 89 143 216 14 342 345 343
146 145 143 144 145 146 147 148 149 149 147 148 148 148 155 161 159 129 93 53 68 80 96 77 55 33 23 42 130 164 216 145 157 163 215 122 112 146 214 222 168 195 207 182 192 216 156 144 286 11 10 7 354 338
144 139 141 141 142 143 143 144 145 145 146 147 147 148 154 164 162 106 114 132 82 97 75 39 21 13 22 19 66 116 150 129 171 315 109 160 198 194 184 243 202 206 192 185 331 253 274 14 33 45 17 347 349 353
138 137 138 139 140 140 140 141 142 141 141 141 142 144 151 156 144 121 115 107 125 124 99 62 41 31 336 70 77 199 96 67 104 88 94 122 177 9 295 355 303 357 197 231 242 260 291 327 43 20 359 10 351 339
136 136 137 138 138 138 139 139 137 136 135 136 139 142 147 139 109 96 85 29 28 119 109 118 96 40 55 106 114 112 121 114 95 91 98 162 41 358 271 11 268 245 242 224 277 63 0 4 15 10 13 357 348 346
132 133 135 137 137 136 136 134 134 132 131 133 137 143 139 128 130 87 54 22 24 74 106 121 93 93 84 76 85 92 87 74 96 115 153 75 65 314 254 251 141 79 61 41 40 26 15 358 333 20 351 330 342 333
131 133 135 134 133 133 132 131 128 127 126 126 124 122 124 109 63 67 119 93 95 108 96 121 129 88 121 108 82 50 59 18 89 59 88 182 151 189 266 255 94 86 67 40 54 19 350 11 344 319 308 326 334 335
131 132 131 132 132 130 128 127 125 124 124 120 116 111 105 107 120 69 27 41 318 78 78 106 106 147 232 146 99 85 69 57 22 104 9 204 116 205 247 247 97 90 65 65 91 37 323 309 295 320 329 332 333 336
131 131 130 130 129 129 127 126 127 128 125 122 119 116 104 41 87 117 188 0 24 95 118 150 154 142 183 87 130 92 50 95 34 171 206 202 173 217 233 69 96 70 48 32 1 339 5 334 327 325 329 337 339 332
129 129 128 128 128 128 129 128 129 131 130 130 123 77 90 81 112 130 92 36 35 31 358 86 108 135 153 142 96 115 233 145 172 188 110 215 252 119 97 84 84 80 82 9 10 341 327 328 337 340 332 333 330 327
127 128 129 128 129 129 130 134 136 137 138 106 93 78 101 139 179 105 114 169 139 115 125 111 122 136 156 139 134 121 179 178 200 151 201 193 158 114 102 98 82 75 26 325 334 338 333 330 322 322 323 327 328 330
128 128 129 130 130 132 137 139 141 144 104 119 110 129 153 163 140 116 135 160 176 141 144 141 130 110 82 132 103 184 132 222 190 152 195 226 122 130 115 116 91 353 347 340 336 325 324 323 321 319 316 323 325 329
128 129 129 131 133 134 140 151 134 122 125 143 90 108 146 150 125 179 161 149 136 134 137 130 118 128 135 66 96 123 141 181 122 157 211 73 110 103 97 72 21 5 0 349 334 329 324 311 320 327 330 324 322 314
127 128 129 130 133 135 132 139 134 145 107 98 112 106 145 131 115 31 129 123 115 133 141 130 93 93 129 152 142 147 157 136 196 193 126 110 106 84 59 29 360 341 330 322 316 309 314 321 315 310 306 309 304 301
125 125 125 125 126 126 118 116 101 65 68 73 48 74 70 86 78 83 101 114 111 109 115 126 119 103 81 112 193 122 173 208 208 75 94 104 87 56 19 337 332 327 313 321 321 316 301 287 295 299 289 281 295 295
121 117 123 124 123 119 117 106 65 58 58 57 52 94 108 111 105 93 101 111 126 135 138 89 107 119 150 143 146 190 188 150 73 99 109 102 81 10 337 342 338 332 328 319 313 309 309 314 310 303 298 274 274 271
109 116 120 113 110 94 65 71 63 49 54 53 58 98 106 107 104 103 104 116 130 116 100 96 118 134 119 172 157 25 54 104 110 115 90 43 19 7 340 332 336 320 314 314 307 304 297 295 292 288 292 293 264 275
120 125 120 120 109 82 54 45 70 66 58 48 88 101 89 101 108 108 114 112 113 119 80 76 109 132 157 156 106 120 112 108 92 69 47 21 0 347 341 326 311 307 307 305 305 291 292 310 314 311 294 295 306 305
129 127 102 85 87 85 71 49 42 82 66 98 110 95 94 83 81 89 86 76 76 88 97 69 69 153 88 96 115 110 108 96 88 60 25 359 336 322 291 295 305 305 304 298 305 309 310 310 305 305 294 292 296 303
104 91 78 67 59 63 69 59 30 91 111 118 118 119 109 98 93 101 108 108 98 78 74 84 77 62 94 91 86 108 112 90 50 352 327 326 322 332 317 305 299 305 312 306 302 301 303 301 298 296 291 291 296 299
99 79 53 64 57 48 79 74 61 93 107 107 125 113 115 128 114 113 103 87 55 85 89 99 101 95 99 114 111 112 117 233 337 334 321 316 311 297 296 305 310 309 306 304 306 305 303 301 301 299 292 292 288 289
82 65 66 48 70 58 46 35 107 112 100 132 126 114 105 105 122 105 117 81 94 103 98 127 131 137 141 154 157 192 312 320 313 302 291 291 303 302 305 308 307 309 303 304 306 310 309 308 308 306 300 291 283 292
85 56 57 56 79 69 80 322 91 103 122 139 122 96 123 139 138 139 102 159 133 108 139 137 126 95 88 122 210 265 293 298 292 289 294 292 292 299 298 302 306 303 306 306 309 313 312 311 307 309 299 287 274 293
47 58 61 70 72 95 86 64 95 96 125 151 136 127 108 129 159 167 165 151 136 164 179 156 164 183 211 238 268 275 277 281 291 287 289 293 295 301 302 301 302 304 309 311 312 317 320 314 310 304 302 283 281 298
75 24 65 78 111 120 113 102 113 101 125 129 95 104 126 156 154 171 195 180 202 180 171 177 193 231 257 268 283 280 255 261 284 298 297 291 299 302 300 301 300 304 313 317 330 329 324 318 314 311 307 269 288 314
78 30 43 109 149 117 135 132 146 144 127 96 91 104 155 150 167 199 172 172 172 148 152 177 202 243 255 268 288 294 301 315 312 300 302 318 317 309 307 303 304 308 325 328 322 321 315 315 313 317 316 340 7 324
96 89 77 349 116 114 92 94 116 109 111 126 150 154 158 160 191 174 129 154 153 150 168 181 214 245 273 289 291 295 310 313 304 308 316 311 302 292 292 300 314 341 344 332 321 310 305 308 309 311 322 327 5 18
86 119 125 118 102 107 100 106 110 108 119 127 138 147 147 158 124 115 122 122 123 141 236 268 292 289 295 308 325 316 311 317 328 302 290 291 300 337 34 2 346 335 325 318 315 308 302 300 315 313 326 0 7 17
83 113 95 83 83 74 63 77 86 66 113 132 116 123 158 160 81 122 92 56 294 236 248 262 279 314 294 297 305 300 296 309 316 306 306 311 325 341 7 341 322 322 321 315 311 307 311 336 343 353 17 7 342 335
92 105 87 63 64 80 53 54 87 51 42 52 18 1 299 290 187 217 255 253 250 253 266 258 269 263 280 294 303 308 161 162 204 292 302 310 321 330 323 321 326 319 318 316 316 312 181 290 295 246 6 1 18 8
86 90 82 89 90 78 78 87 121 111 47 351 1 289 288 314 328 269 258 276 332 138 185 244 226 207 243 271 279 296 307 79 80 64 309 310 310 315 322 328 318 314 316 323 326 337 350 343 352 3 5 11 25 4
86 88 117 109 111 104 122 54 47 21 315 271 289 275 274 259 269 273 75 127 136 170 155 144 230 140 90 256 244 281 18 314 314 326 337 331 319 322 324 319 313 324 316 319 319 334 351 352 348 9 2 8 12 3
98 81 84 102 115 122 89 28 44 7 320 305 318 1 323 322 290 45 96 38 17 125 96 97 107 183 171 172 307 327 244 271 307 292 247 257 291 322 317 325 335 324 317 319 335 354 9 3 6 1 13 13 10 13